Regional Weather Roundup
Issued by NWS

Home | Current Version | Previous Version | Graphics & Text | Print | Product List | Glossary Off
Versions: 1 2 3 4 5 6 7 8 9 10 11 12 13 14 15 16 17 18 19 20 21 22 23 24 25 26 27 28 29 30 31 32 33 34 35 36 37 38 39 40 41 42 43 44 45 46 47 48 49 50

000
ASUS43 KMPX 240301
RWRMN
WEATHER ROUNDUP FOR MINNESOTA
NATIONAL WEATHER SERVICE TWIN CITIES/CHANHASSEN MN
900 PM CST MON JAN 23 2017


NOTE: "FAIR" INDICATES FEW OR NO CLOUDS BELOW 12,000 FEET WITH NO
SIGNIFICANT WEATHER AND/OR OBSTRUCTIONS TO VISIBILITY. N/A MEANS
CURRENT SKY AND/OR WEATHER CONDITIONS ARE NOT AVAILABLE.

MNZ060>063-068>070-240400-
   Twin Cities Metro

CITY           SKY/WX    TMP DP  RH WIND       PRES   REMARKS
TWIN CITIES    CLOUDY    34  27  75 NW5       29.84S WCI  30
ST PAUL        CLOUDY    33  31  92 N5        29.85S WCI  29
CRYSTAL        CLOUDY    33  26  75 NW6       29.83R WCI  28
BLAINE         CLOUDY    34  34 100 NW3       29.83S
LAKEVILLE        N/A     30  30 100 W3        29.83S
EDEN PRAIRIE   CLOUDY    33  27  78 W5        29.83R WCI  29
SOUTH ST PAUL  CLOUDY    34  32  93 CALM      29.84R
LAKE ELMO      CLOUDY    32  32 100 CALM      29.84S
$$
MNZ001>005-007-008-013>017-022>024-027-028-240400-
   Northwest Minnesota

CITY           SKY/WX    TMP DP  RH WIND       PRES   REMARKS
BEMIDJI        CLOUDY    29  23  78 SW8       29.80S WCI  21
HALLOCK        CLOUDY    28  25  86 SW9       29.79S WCI  20
ROSEAU         CLOUDY    28  23  80 SW7       29.79S WCI  21
WARROAD        CLOUDY    28  25  86 SW8       29.79S WCI  20
THIEF RVR FALL CLOUDY    28  24  85 SW8       29.81S WCI  20
CROOKSTON      CLOUDY    30  25  80 W8        29.83R WCI  23
FOSSTON        CLOUDY    27  21  80 W9        29.82S WCI  17
DETROIT LAKES  CLOUDY    30  28  93 NW5       29.82S WCI  25
MOORHEAD       CLOUDY    30  27  86 CALM      29.84S
PARK RAPIDS    CLOUDY    30  23  75 NW6       29.80S WCI  24
MAHNOMEN       CLOUDY    28  24  85 W3        29.82S
$$
MNZ006-009>011-018-025>026-240400-
   North Central Minnesota

CITY           SKY/WX    TMP DP  RH WIND       PRES   REMARKS
BAUDETTE       CLOUDY    29  23  78 CALM      29.79S
FLAG ISLAND    CLOUDY    27  23  86 SW5       29.78S WCI  21
INTL FALLS     CLOUDY    31  25  78 W9        29.78S WCI  23
WASKISH        CLOUDY    30  27  86 CALM      29.80S
BIG FORK       CLOUDY    32  27  80 CALM      29.79S
LONGVILLE      CLOUDY    30  27  86 CALM      29.80S
GRAND RAPIDS   CLOUDY    31  26  82 CALM      29.81S
CRANE LAKE     CLOUDY    30  28  93 CALM      29.81S
ORR            CLOUDY    30  27  86 CALM      29.77R
COOK           CLOUDY    30  28  93 CALM      29.79S
WALKER         CLOUDY    30  24  79 W6        29.80S WCI  24
$$
MNZ012-019>021-037-240400-
   Northeast Minnesota

CITY           SKY/WX    TMP DP  RH WIND       PRES   REMARKS
DULUTH         CLOUDY    33  32  96 NW5       29.78S FOG     WCI  29
ELY            CLOUDY    32  32 100 CALM      29.77S FOG
HIBBING        CLOUDY    30  25  81 NW7       29.79S WCI  23
EVELETH        MIX PCPN  32  31  96 W3        29.80R
DULUTH HARBOR  CLOUDY    36  34  93 CALM      29.82S
TWO HARBORS    CLOUDY    37  32  81 NW3       29.77S
SILVER BAY     CLOUDY    36  34  93 CALM      29.77S
GRAND MARAIS     N/A     34  33  96 CALM      29.79
G MARAIS ARPRT CLOUDY    32  28  86 CALM      29.76S
$$
MNZ029>031-032-039>041-046>048-054>057-064-240400-
   West Central Minnesota

CITY           SKY/WX    TMP DP  RH WIND       PRES   REMARKS
FERGUS FALLS   CLOUDY    30  28  93 CALM      29.87S
WHEATON        CLOUDY    30  27  86 CALM      29.85F
MORRIS         CLOUDY    30  28  93 CALM      29.82S
ALEXANDRIA     CLOUDY    30  25  81 N3        29.82F
ELBOW LAKE     CLOUDY    31  26  82 CALM      29.83S FOG
WADENA         CLOUDY    28  25  86 CALM      29.81S
GLENWOOD       CLOUDY    30  25  80 CALM      29.83S
APPLETON       CLOUDY    34  28  80 CALM      29.84S
ORTONVILLE     CLOUDY    30  27  86 CALM      29.83S
MADISON        CLOUDY    34  30  86 CALM      29.83F
WILLMAR        CLOUDY    32  28  86 CALM      29.85S
$$
MNZ033>034-036-042>043-049>051-058-059-240400-
   Central Minnesota

CITY           SKY/WX    TMP DP  RH WIND       PRES   REMARKS
ST CLOUD       CLOUDY    31  27  85 NW5       29.83S WCI  26
SAUK CENTRE    CLOUDY    30  27  87 W5        29.83S WCI  25
PAYNESVILLE    CLOUDY    31  30  95 CALM      29.83F
AITKIN         CLOUDY    34  25  69 CALM      29.80S
PINE RIVER     CLOUDY    30  25  80 CALM      29.84S
BRAINERD       CLOUDY    31  26  82 CALM      29.82R
STAPLES        CLOUDY    28  27  93 CALM      29.82R
LONG PRAIRIE   CLOUDY    30  27  86 CALM      29.82S
LITTLE FALLS   CLOUDY    32  27  80 CALM      29.84S
LITCHFIELD     CLOUDY    32  28  86 NW3       29.84S
BUFFALO        CLOUDY    32  27  82 CALM      29.85R
MAPLE LAKE     CLOUDY    32  29  88 N3        29.85R
HUTCHINSON     CLOUDY    32  29  88 CALM      29.85R
$$
MNZ037-044-045-052-053-240400-
   East Central Minnesota

CITY           SKY/WX    TMP DP  RH WIND       PRES   REMARKS
PRINCETON      CLOUDY    34  28  80 W3        29.84S
MORA           CLOUDY    32  28  86 CALM      29.84S
CAMBRIDGE      CLOUDY    34  30  86 CALM      29.82R
RUSH CITY      CLOUDY    32  30  93 CALM      29.83S
MOOSE LAKE     CLOUDY    32  30  93 CALM      29.80R
HINCKLEY       LGT RAIN  32  32 100 CALM      29.82R
CLOQUET        LGT SNOW  32  30  93 CALM      29.79S
MCGREGOR       CLOUDY    32  30  93 W3        29.81R
$$
MNZ071>073-080-081-089-090-097-098-240400-
   Southwest Minnesota

CITY           SKY/WX    TMP DP  RH WIND       PRES   REMARKS
MONTEVIDEO     CLOUDY    30  30 100 CALM      29.85F
GRANITE FALLS  CLOUDY    33  30  90 CALM      29.86S
CANBY          CLOUDY    32  29  90 CALM      29.84F
MARSHALL       CLOUDY    31  28  89 SE3       29.84F
REDWOOD FALLS  CLOUDY    33  26  75 CALM      29.85R
OLIVIA         CLOUDY    32  28  86 NW3       29.84S
PIPESTONE      CLOUDY    30  28  93 SE5       29.80F WCI  25
WINDOM         CLOUDY    30  28  93 CALM      29.83S
WORTHINGTON    CLOUDY    30  28  92 CALM      29.83S
JACKSON        CLOUDY    30  28  93 CALM      29.83S
TRACY          CLOUDY    32  29  90 CALM      29.84S
SLAYTON        CLOUDY    29  28  94 CALM      29.83S
$$
MNZ065>067-074>077-082>085-091>093-240400-
   South Central Minnesota

CITY           SKY/WX    TMP DP  RH WIND       PRES   REMARKS
MANKATO        CLOUDY    32  29  88 CALM      29.85R
NEW ULM        CLOUDY    32  28  86 NW3       29.85R
ST JAMES       CLOUDY    30  28  93 CALM      29.86R
FAIRMONT       CLOUDY    31  29  92 N3        29.85R
GLENCOE        CLOUDY    33  30  89 N5        29.83S WCI  28
OWATONNA       CLOUDY    30  27  86 NW5       29.84R WCI  25
WASECA         CLOUDY    32  28  86 NW3       29.86R
ALBERT LEA     CLOUDY    32  28  86 CALM      29.83S
$$
MNZ078>079-086>088-094>096-240400-
   Southeast Minnesota

CITY           SKY/WX    TMP DP  RH WIND       PRES   REMARKS
ROCHESTER      CLOUDY    31  27  85 NW3       29.83R
RED WING       CLOUDY    34  28  80 CALM      29.83S
STANTON        CLOUDY    33  29  85 W3        29.82S
DODGE CENTER   MOCLDY    30  28  93 MISG      29.82S
WINONA         CLOUDY    34  32  93 CALM      29.85S
AUSTIN         CLOUDY    30  27  86 CALM      29.84R
PRESTON        CLOUDY    31  28  89 W3        29.84R
$$
ABBREVIATIONS USED IN REMARKS
   TC - TEMPERATURES IN CELSIUS
  WCI - WIND CHILL INDEX
   HX - HEAT INDEX
  VSB - VISIBILITY
$$



USA.gov is the U.S. government's official web portal to all federal, state and local government web resources and services.